Location: Alsip
(41.6689°N, 87.7387°W)
Time: 16:49:59
(UTC+00:00)

STARLINK-2707 - Pass Details

Date: 01 August 2021
Orbit: 545 x 548 km, 53.0° (Epoch: 22 September)

Event Time Altitude Azimuth Distance (km) Brightness Sun altitude
Rises 02:30:04 0° 293° (WNW) 2,706 8.7 -13.5°
Reaches altitude 10° 02:32:55 10° 273° (W) 1,809 7.1 -13.9°
Maximum altitude 02:35:34 17° 233° (SW) 1,422 5.9 -14.3°
Drops below altitude 10° 02:38:13 10° 192° (SSW) 1,801 6.0 -14.7°
Enters shadow 02:38:33 - 189° (S) 1,888 6.0 -14.7°
